Location: Recife
(8.0585°S, 34.8848°W)
Time: 11:40:10
(UTC-03:00)

Vanguard 2 Rocket - All Passes

Search period start: 14 April 2026 00:00
Search period end: 24 April 2026 00:00
Orbit: 554 x 3286 km, 32.9° (Epoch: 14 April)

Date Brightness Start Highest point End Pass type
(mag) Time Alt. Az. Time Alt. Az. Time Alt. Az.
14 Apr - 03:53:30 10° NW 03:58:50 54° NE 04:07:59 10° ESE visible
14 Apr - 06:05:39 10° W 06:13:05 43° SSW 06:25:51 10° SE daylight
14 Apr - 08:21:32 10° WSW 08:31:38 27° S 08:45:53 10° SE daylight
14 Apr - 10:38:41 10° SW 10:53:24 32° SSE 11:10:17 10° ESE daylight
14 Apr - 12:55:15 10° SW 13:14:45 56° SSE 13:31:31 10° ENE daylight
14 Apr - 15:13:16 10° WSW 15:33:07 72° NW 15:46:30 10° NE daylight
14 Apr - 17:37:00 10° W 17:48:15 23° NW 17:56:22 10° N visible
15 Apr - 02:50:13 10° N 02:54:13 24° NE 02:59:52 10° E visible
15 Apr - 05:00:39 10° WNW 05:06:52 59° SSW 05:18:02 10° SE visible
15 Apr - 07:15:15 10° WSW 07:23:38 28° S 07:36:22 10° SE daylight
15 Apr - 09:32:00 10° SW 09:44:11 28° S 09:59:46 10° ESE daylight
15 Apr - 11:48:13 10° SW 12:05:53 45° SSE 12:23:36 10° E daylight
15 Apr - 14:04:58 10° SW 14:25:32 86° SE 14:41:02 10° ENE daylight
15 Apr - 16:25:38 10° WSW 16:41:59 38° NW 16:53:06 10° NNE daylight
16 Apr - 03:56:12 10° NW 04:01:26 86° NNE 04:10:35 10° ESE visible
16 Apr - 06:09:26 10° WSW 06:16:27 32° SSW 06:27:46 10° SE daylight
16 Apr - 08:25:36 10° SW 08:35:26 25° S 08:49:00 10° SE daylight
16 Apr - 10:41:37 10° SW 10:56:49 36° SSE 11:14:21 10° E daylight
16 Apr - 12:57:28 10° SW 13:17:18 68° SSE 13:34:38 10° ENE daylight
16 Apr - 15:15:52 10° WSW 15:35:10 58° NW 15:48:46 10° NE daylight
16 Apr - 17:42:26 10° WNW 17:50:42 16° NW 17:57:15 10° N visible
17 Apr - 02:52:21 10° NNW 02:56:41 41° NE 03:03:16 10° ESE visible
17 Apr - 05:04:07 10° W 05:10:02 40° SSW 05:20:01 10° SE daylight
17 Apr - 07:19:26 10° SW 07:27:21 24° S 07:38:48 10° SE daylight
17 Apr - 09:35:23 10° SW 09:47:51 29° SSE 10:03:49 10° ESE daylight
17 Apr - 11:50:36 10° SW 12:08:41 53° SSE 12:27:05 10° ENE daylight
17 Apr - 14:07:19 10° WSW 14:27:42 78° NW 14:43:33 10° NE daylight
17 Apr - 16:29:26 10° W 16:44:07 29° NW 16:54:49 10° NNE daylight
18 Apr - 01:49:28 10° N 01:52:12 16° NE 01:55:29 10° E visible
18 Apr - 03:59:17 10° WNW 04:04:20 59° SSW 04:12:54 10° SE visible
18 Apr - 06:13:32 10° WSW 06:20:01 24° S 06:29:45 10° SE daylight
18 Apr - 08:29:25 10° SW 08:39:13 24° S 08:52:36 10° ESE daylight
18 Apr - 10:44:17 10° SW 10:59:55 42° SSE 11:18:13 10° E daylight
18 Apr - 12:59:44 10° SW 13:19:37 82° SE 13:37:26 10° ENE daylight
18 Apr - 15:18:52 10° WSW 15:37:12 45° NW 15:50:47 10° NNE daylight
18 Apr - 17:50:47 10° NW 17:53:28 11° NW 17:55:58 10° NNW visible
19 Apr - 02:54:56 10° NW 02:59:19 75° NE 03:06:09 10° ESE visible
19 Apr - 05:07:57 10° WSW 05:13:25 28° SSW 05:21:54 10° SE daylight
19 Apr - 07:23:36 10° SW 07:31:09 21° S 07:41:39 10° SE daylight
19 Apr - 09:38:23 10° SW 09:51:15 33° SSE 10:07:57 10° ESE daylight
19 Apr - 11:52:55 10° SW 12:11:11 64° SSE 12:30:14 10° ENE daylight
19 Apr - 14:09:53 10° WSW 14:29:43 64° NW 14:45:48 10° NE daylight
19 Apr - 16:34:07 10° W 16:46:30 22° NW 16:56:09 10° N daylight
20 Apr - 01:51:10 10° NNW 01:54:46 30° NE 01:59:24 10° ESE visible
20 Apr - 04:02:44 10° W 04:07:29 36° SSW 04:14:58 10° SE visible
20 Apr - 06:17:53 10° SW 06:23:43 19° S 06:31:55 10° SE daylight
20 Apr - 08:32:51 10° SW 08:42:52 25° SSE 08:56:37 10° ESE daylight
20 Apr - 10:46:46 10° SW 11:02:42 49° SSE 11:21:46 10° E daylight
20 Apr - 13:02:07 10° WSW 13:21:45 84° NW 13:39:55 10° NE daylight
20 Apr - 15:22:24 10° W 15:39:19 35° NW 15:52:33 10° NNE daylight
21 Apr - 00:48:54 10° NNE 00:50:11 11° NE 00:51:29 10° ENE night (unlit)
21 Apr - 02:57:55 10° WNW 03:02:11 60° SSW 03:08:39 10° SE visible
21 Apr - 05:12:11 10° SW 05:16:58 20° S 05:23:43 10° SSE daylight
21 Apr - 07:27:32 10° SSW 07:34:55 20° S 07:45:03 10° SE daylight
21 Apr - 09:41:08 10° SW 09:54:22 38° SSE 10:11:55 10° E daylight
21 Apr - 11:55:17 10° SW 12:13:29 77° SE 12:33:01 10° ENE daylight
21 Apr - 14:12:49 10° WSW 14:31:46 51° NW 14:47:47 10° NNE daylight
21 Apr - 16:40:06 10° WNW 16:49:13 16° NW 16:56:53 10° N daylight
22 Apr - 01:53:32 10° NW 01:57:27 61° NE 02:02:34 10° ESE visible
22 Apr - 04:06:37 10° WSW 04:10:50 23° SSW 04:16:50 10° SSE visible
22 Apr - 06:22:16 10° SSW 06:27:29 16° S 06:34:25 10° SE daylight
22 Apr - 08:35:55 10° SSW 08:46:18 28° SSE 09:00:47 10° ESE daylight
22 Apr - 10:49:11 10° SW 11:05:12 59° SSE 11:24:57 10° ENE daylight
22 Apr - 13:04:43 10° WSW 13:23:49 69° NW 13:42:06 10° NE daylight
22 Apr - 15:26:40 10° W 15:41:40 27° NW 15:54:01 10° NNE daylight
23 Apr - 00:49:44 10° NNW 00:52:55 23° NE 00:56:19 10° E night (unlit)
23 Apr - 03:01:20 10° W 03:05:17 33° SSW 03:10:50 10° SE visible
23 Apr - 05:16:51 10° SW 05:20:38 15° S 05:25:29 10° SSE daylight
23 Apr - 07:31:02 10° SSW 07:38:34 21° SSE 07:48:59 10° ESE daylight
23 Apr - 09:43:42 10° SW 09:57:10 45° SSE 10:15:34 10° E daylight
23 Apr - 11:57:44 10° SW 12:15:38 89° NW 12:35:28 10° NE daylight
23 Apr - 14:16:11 10° W 14:33:55 40° NW 14:49:31 10° NNE daylight
23 Apr - 16:48:50 10° NW 16:52:24 11° NNW 16:55:44 10° NNW daylight
